Powrót do katalogu

STARLINK-3445

AktywnyŁącznośćVLEO
NORAD 51717·PAYLOAD·🇺🇸 United States

Wystrzelony Feb 21, 2022 z Cape Canaveral Space Force Station

Loading…

Następne Przeloty (najbliższe 24 godziny)

TLE

ŚwieżeSource: CelesTrak SupGP

Epoka: Sep 15, 2026, 01:49 UTC

1 51717C 22016D   26258.07618056 -.00023053  00000+0 -74135-3 0  2583
2 51717  53.1590 185.0656 0001481  83.4482 359.4847 15.31712054    10

Śledź STARLINK-3445 w czasie rzeczywistym z AllMySat

Download on the App Store